Ephrata, WA

2:04 AM PDT on May 28, 2017 (GMT -0700)
Ephrata Municipal

Weather History for KEPH - September, 2012

Change the Weather History Date:

Sunday, September 23, 2012

  Actual Average Record
Temperature  
Mean Temperature 60 °F 61 °F  
Max Temperature 72 °F 75 °F 92 °F (1987)
Min Temperature 47 °F 47 °F 32 °F (2008)
Degree Days  
Heating Degree Days 5 5  
Month to date heating degree days 31 63  
Since 1 July heating degree days 37 80  
Cooling Degree Days 0 1  
Month to date cooling degree days 69 68  
Year to date cooling degree days 836 762  
Growing Degree Days 10 (Base 50)    
Moisture  
Dew Point 47 °F    
Average Humidity 65    
Maximum Humidity 86    
Minimum Humidity 44    
Precipitation  
Precipitation 0.00 in 0.02 in 0.47 in (1986)
Month to date precipitation T 0.26  
Year to date precipitation 4.84 4.92  
Sea Level Pressure  
Sea Level Pressure 30.03 in    
Wind  
Wind Speed 6 mph (SW)    
Max Wind Speed 16 mph    
Max Gust Speed 18 mph    
Visibility 4 miles    
Events      
T = Trace of Precipitation, MM = Missing Value Source: NWS Daily Summary

Daily Weather History Graph

Daily Weather History Graph

Search for Another Location

Airport or City:

Trip Planner

Search our weather history database for the weather conditions in past years. The results will help you decide how hot, cold, wet, or windy it might be!

Date:

Astronomy

Sep. 23, 2012 Rise Set
Actual Time 6:46 AM PDT 6:52 PM PDT
Civil Twilight 6:16 AM PDT 7:23 PM PDT
Nautical Twilight 5:40 AM PDT 7:58 PM PDT
Astronomical Twilight 5:03 AM PDT 8:35 PM PDT
Moon 3:18 PM PDT (9/23) No Moon Set
Length of Visible Light 13h 06m
Length of Day
12h 05m
First Quarter, 61% of the Moon is Illuminated
Sep 23
First Quarter
Sep 29
Full
Oct 8
Last Quarter
Oct 15
New
Oct 21
First Quarter

Hourly Weather History & Observations

Time (PDT) Temp. Dew Point Humidity Pressure Visibility Wind Dir Wind Speed Gust Speed Precip Events Conditions
12:53 AM 53.1 °F 45.0 °F 74% 30.00 in 5.0 mi Calm Calm - N/A   Haze
1:53 AM 54.0 °F 46.0 °F 75% 30.00 in 5.0 mi NW 5.8 mph - N/A   Haze
2:53 AM 52.0 °F 45.0 °F 77% 30.00 in 5.0 mi North 9.2 mph - N/A   Haze
3:53 AM 48.9 °F 45.0 °F 86% 30.02 in 5.0 mi Calm Calm - N/A   Clear
4:53 AM 51.1 °F 44.1 °F 77% 30.01 in 5.0 mi North 6.9 mph - N/A   Haze
5:53 AM 50.0 °F 44.1 °F 80% 30.04 in 5.0 mi SW 10.4 mph - N/A   Haze
6:53 AM 53.1 °F 46.0 °F 77% 30.02 in 4.0 mi North 4.6 mph - N/A   Haze
7:53 AM 52.0 °F 45.0 °F 77% 30.04 in 4.0 mi SE 8.1 mph - N/A   Haze
8:53 AM 53.1 °F 48.0 °F 83% 30.09 in 4.0 mi Calm Calm - N/A   Haze
9:53 AM 55.9 °F 48.0 °F 75% 30.09 in 4.0 mi Calm Calm - N/A   Haze
10:53 AM 60.1 °F 46.9 °F 62% 30.05 in 5.0 mi North 4.6 mph - N/A   Haze
11:53 AM 64.0 °F 48.0 °F 56% 30.07 in 5.0 mi SSE 10.4 mph - N/A   Haze
12:53 PM 66.0 °F 48.0 °F 52% 30.06 in 3.0 mi South 6.9 mph - N/A   Haze
1:40 PM 68.0 °F 48.2 °F 49% 30.05 in 2.5 mi SSW 6.9 mph - N/A   Haze
1:53 PM 69.1 °F 46.9 °F 45% 30.04 in 2.5 mi SSW 10.4 mph - N/A   Haze
2:53 PM 69.1 °F 46.9 °F 45% 30.04 in 2.5 mi SW 11.5 mph - N/A   Haze
3:53 PM 71.1 °F 48.0 °F 44% 30.03 in 2.5 mi SW 9.2 mph - N/A   Haze
4:20 PM 71.6 °F 48.2 °F 43% 30.03 in 3.0 mi SW 9.2 mph - N/A   Haze
4:53 PM 71.1 °F 48.9 °F 45% 30.02 in 3.0 mi SSW 3.5 mph - N/A   Haze
5:39 PM 69.8 °F 48.2 °F 46% 30.02 in 2.5 mi South 3.5 mph - N/A   Haze
5:53 PM 70.0 °F 48.0 °F 46% 30.01 in 2.5 mi South 5.8 mph - N/A   Haze
6:09 PM 68.0 °F 48.2 °F 49% 30.02 in 3.0 mi South 4.6 mph - N/A   Haze
6:53 PM 63.0 °F 46.9 °F 56% 30.02 in 3.0 mi South 4.6 mph - N/A   Haze
7:53 PM 59.0 °F 46.0 °F 62% 30.03 in 4.0 mi SW 5.8 mph - N/A   Haze
8:53 PM 59.0 °F 46.0 °F 62% 30.04 in 4.0 mi ENE 3.5 mph - N/A   Haze
9:53 PM 55.9 °F 46.0 °F 69% 30.04 in 4.0 mi North 4.6 mph - N/A   Haze
10:53 PM 54.0 °F 46.0 °F 75% 30.04 in 4.0 mi NNE 5.8 mph - N/A   Haze
11:39 PM 53.6 °F 46.4 °F 77% 30.03 in 1.8 mi NNE 4.6 mph - N/A   Haze
11:53 PM 53.1 °F 46.0 °F 77% 30.04 in 2.5 mi North 6.9 mph - N/A   Haze